PRIVATE WETTERSTATION BILLIGHEIM-ALLFELD                       ZURCK
Wetterdaten: Mittwoch, 12.11.2014
Datum Zeit Temp. A. Temp. A. min Temp. A. max Feuchte A. Luftdruck Regen Wind Richtung Richtung Sonnenschein ET Solar Taupunkt Windchill Windben Empfang
12.11.2014 00:00 6,8 C 6,8 C 6,8 C 91 % 1003,5 hPa 0,0 l/m 0,0 km/h (0 Bft) S-SW 202 0 min 0,000 mm 0 W/m 5,4 C 6,8 C 1,6 km/h (1 Bft) 99 %
12.11.2014 00:10 6,8 C 6,8 C 6,8 C 91 % 1003,4 hPa 0,0 l/m 0,0 km/h (0 Bft) SW 225 0 min 0,000 mm 0 W/m 5,4 C 6,8 C 3,2 km/h (1 Bft) 99 %
12.11.2014 00:20 6,8 C 6,8 C 6,8 C 91 % 1003,4 hPa 0,0 l/m 0,0 km/h (0 Bft) NW 315 0 min 0,000 mm 0 W/m 5,4 C 6,8 C 1,6 km/h (1 Bft) 100 %
12.11.2014 00:30 6,9 C 6,8 C 6,9 C 91 % 1003,5 hPa 0,0 l/m 0,0 km/h (0 Bft) NW 315 0 min 0,000 mm 0 W/m 5,5 C 6,9 C 3,2 km/h (1 Bft) 100 %
12.11.2014 00:40 6,9 C 6,9 C 6,9 C 91 % 1003,3 hPa 0,0 l/m 0,0 km/h (0 Bft) NW 315 0 min 0,000 mm 0 W/m 5,5 C 6,9 C 1,6 km/h (1 Bft) 100 %
12.11.2014 00:50 6,9 C 6,9 C 6,9 C 91 % 1003,5 hPa 0,0 l/m 0,0 km/h (0 Bft) NW 315 0 min 0,000 mm 0 W/m 5,5 C 6,9 C 3,2 km/h (1 Bft) 100 %
12.11.2014 01:00 6,9 C 6,9 C 6,9 C 91 % 1003,3 hPa 0,0 l/m 0,0 km/h (0 Bft) NW 315 0 min 0,000 mm 0 W/m 5,5 C 6,9 C 3,2 km/h (1 Bft) 100 %
12.11.2014 01:10 6,9 C 6,9 C 6,9 C 91 % 1003,3 hPa 0,0 l/m 0,0 km/h (0 Bft) NW 315 0 min 0,000 mm 0 W/m 5,5 C 6,9 C 1,6 km/h (1 Bft) 100 %
12.11.2014 01:20 6,9 C 6,9 C 6,9 C 91 % 1003,2 hPa 0,0 l/m 0,0 km/h (0 Bft) N 0 0 min 0,000 mm 0 W/m 5,5 C 6,9 C 0,0 km/h (0 Bft) 100 %
12.11.2014 01:30 6,9 C 6,9 C 6,9 C 91 % 1003,2 hPa 0,0 l/m 0,0 km/h (0 Bft) N 0 0 min 0,000 mm 0 W/m 5,5 C 6,9 C 0,0 km/h (0 Bft) 90 %
12.11.2014 01:40 6,9 C 6,9 C 6,9 C 91 % 1003,1 hPa 0,0 l/m 0,0 km/h (0 Bft) N 0 0 min 0,000 mm 0 W/m 5,5 C 6,9 C 0,0 km/h (0 Bft) 100 %
12.11.2014 01:50 6,9 C 6,9 C 6,9 C 91 % 1003,1 hPa 0,0 l/m 0,0 km/h (0 Bft) N 0 0 min 0,000 mm 0 W/m 5,5 C 6,9 C 0,0 km/h (0 Bft) 100 %
12.11.2014 02:00 6,9 C 6,9 C 6,9 C 91 % 1003,2 hPa 0,0 l/m 0,0 km/h (0 Bft) N 0 0 min 0,000 mm 0 W/m 5,5 C 6,9 C 0,0 km/h (0 Bft) 100 %
12.11.2014 02:10 7,0 C 6,9 C 7,0 C 91 % 1003,3 hPa 0,0 l/m 0,0 km/h (0 Bft) NW 315 0 min 0,000 mm 0 W/m 5,6 C 7,0 C 3,2 km/h (1 Bft) 100 %
12.11.2014 02:20 7,0 C 7,0 C 7,0 C 91 % 1003,1 hPa 0,0 l/m 0,0 km/h (0 Bft) NW 315 0 min 0,000 mm 0 W/m 5,6 C 7,0 C 1,6 km/h (1 Bft) 100 %
12.11.2014 02:30 7,1 C 7,0 C 7,1 C 91 % 1002,9 hPa 0,0 l/m 0,0 km/h (0 Bft) NW 315 0 min 0,000 mm 0 W/m 5,7 C 7,1 C 1,6 km/h (1 Bft) 100 %
12.11.2014 02:40 7,1 C 7,1 C 7,1 C 91 % 1003,1 hPa 0,0 l/m 0,0 km/h (0 Bft) NW 315 0 min 0,000 mm 0 W/m 5,7 C 7,1 C 3,2 km/h (1 Bft) 100 %
12.11.2014 02:50 7,1 C 7,1 C 7,1 C 91 % 1002,9 hPa 0,0 l/m 0,0 km/h (0 Bft) NW 315 0 min 0,000 mm 0 W/m 5,7 C 7,1 C 1,6 km/h (1 Bft) 100 %
12.11.2014 03:00 7,1 C 7,1 C 7,2 C 91 % 1003,0 hPa 0,0 l/m 0,0 km/h (0 Bft) SW 225 0 min 0,000 mm 0 W/m 5,7 C 7,1 C 3,2 km/h (1 Bft) 100 %
12.11.2014 03:10 7,2 C 7,1 C 7,2 C 91 % 1003,0 hPa 0,0 l/m 0,0 km/h (0 Bft) W-SW 247 0 min 0,000 mm 0 W/m 5,8 C 7,2 C 3,2 km/h (1 Bft) 100 %
12.11.2014 03:20 7,2 C 7,2 C 7,2 C 91 % 1002,9 hPa 0,0 l/m 0,0 km/h (0 Bft) W-SW 247 0 min 0,000 mm 0 W/m 5,8 C 7,2 C 1,6 km/h (1 Bft) 100 %
12.11.2014 03:30 7,2 C 7,2 C 7,2 C 91 % 1002,9 hPa 0,0 l/m 0,0 km/h (0 Bft) W 270 0 min 0,000 mm 0 W/m 5,8 C 7,2 C 4,8 km/h (1 Bft) 100 %
12.11.2014 03:40 7,2 C 7,2 C 7,2 C 91 % 1003,0 hPa 0,0 l/m 0,0 km/h (0 Bft) N 0 0 min 0,000 mm 0 W/m 5,8 C 7,2 C 0,0 km/h (0 Bft) 100 %
12.11.2014 03:50 7,1 C 7,1 C 7,2 C 91 % 1002,9 hPa 0,0 l/m 0,0 km/h (0 Bft) NW 315 0 min 0,000 mm 0 W/m 5,7 C 7,1 C 3,2 km/h (1 Bft) 100 %
12.11.2014 04:00 7,1 C 7,1 C 7,1 C 91 % 1002,9 hPa 0,0 l/m 0,0 km/h (0 Bft) N 0 0 min 0,000 mm 0 W/m 5,7 C 7,1 C 0,0 km/h (0 Bft) 91 %
12.11.2014 04:10 7,1 C 7,1 C 7,1 C 91 % 1003,0 hPa 0,0 l/m 0,0 km/h (0 Bft) NW 315 0 min 0,000 mm 0 W/m 5,7 C 7,1 C 3,2 km/h (1 Bft) 100 %
12.11.2014 04:20 7,0 C 7,0 C 7,1 C 91 % 1003,3 hPa 0,0 l/m 0,0 km/h (0 Bft) NW 315 0 min 0,000 mm 0 W/m 5,6 C 7,0 C 3,2 km/h (1 Bft) 100 %
12.11.2014 04:30 6,9 C 6,9 C 7,0 C 91 % 1003,2 hPa 0,0 l/m 0,0 km/h (0 Bft) NW 315 0 min 0,000 mm 0 W/m 5,5 C 6,9 C 3,2 km/h (1 Bft) 100 %
12.11.2014 04:40 6,9 C 6,9 C 7,0 C 91 % 1003,0 hPa 0,0 l/m 0,0 km/h (0 Bft) NW 315 0 min 0,000 mm 0 W/m 5,5 C 6,9 C 1,6 km/h (1 Bft) 100 %
12.11.2014 04:50 6,9 C 6,9 C 7,0 C 91 % 1003,3 hPa 0,0 l/m 0,0 km/h (0 Bft) N 0 0 min 0,000 mm 0 W/m 5,5 C 6,9 C 0,0 km/h (0 Bft) 100 %
12.11.2014 05:00 6,9 C 6,9 C 6,9 C 91 % 1003,0 hPa 0,0 l/m 0,0 km/h (0 Bft) N 0 0 min 0,000 mm 0 W/m 5,5 C 6,9 C 0,0 km/h (0 Bft) 100 %
12.11.2014 05:10 6,9 C 6,9 C 6,9 C 91 % 1003,0 hPa 0,0 l/m 0,0 km/h (0 Bft) NW 315 0 min 0,000 mm 0 W/m 5,5 C 6,9 C 3,2 km/h (1 Bft) 100 %
12.11.2014 05:20 6,9 C 6,9 C 6,9 C 91 % 1003,2 hPa 0,0 l/m 0,0 km/h (0 Bft) NW 315 0 min 0,000 mm 0 W/m 5,5 C 6,9 C 1,6 km/h (1 Bft) 100 %
12.11.2014 05:30 6,8 C 6,8 C 6,9 C 91 % 1003,2 hPa 0,0 l/m 0,0 km/h (0 Bft) NW 315 0 min 0,000 mm 0 W/m 5,4 C 6,8 C 1,6 km/h (1 Bft) 100 %
12.11.2014 05:40 6,8 C 6,8 C 6,9 C 91 % 1003,0 hPa 0,0 l/m 0,0 km/h (0 Bft) NW 315 0 min 0,000 mm 0 W/m 5,4 C 6,8 C 3,2 km/h (1 Bft) 99 %
12.11.2014 05:50 6,8 C 6,8 C 6,8 C 91 % 1002,9 hPa 0,0 l/m 0,0 km/h (0 Bft) NW 315 0 min 0,000 mm 0 W/m 5,4 C 6,8 C 4,8 km/h (1 Bft) 100 %
12.11.2014 06:00 6,8 C 6,8 C 6,8 C 91 % 1002,7 hPa 0,0 l/m 1,6 km/h (1 Bft) NW 315 0 min 0,000 mm 0 W/m 5,4 C 6,8 C 6,4 km/h (2 Bft) 100 %
12.11.2014 06:10 6,8 C 6,8 C 6,8 C 91 % 1002,7 hPa 0,0 l/m 1,6 km/h (1 Bft) W-NW 292 0 min 0,000 mm 0 W/m 5,4 C 6,8 C 4,8 km/h (1 Bft) 100 %
12.11.2014 06:20 6,7 C 6,7 C 6,8 C 91 % 1002,8 hPa 0,0 l/m 0,0 km/h (0 Bft) W-NW 292 0 min 0,000 mm 0 W/m 5,3 C 6,7 C 6,4 km/h (2 Bft) 100 %
12.11.2014 06:30 6,7 C 6,7 C 6,7 C 91 % 1002,8 hPa 0,0 l/m 0,0 km/h (0 Bft) W-NW 292 0 min 0,000 mm 0 W/m 5,3 C 6,7 C 1,6 km/h (1 Bft) 100 %
12.11.2014 06:40 6,7 C 6,7 C 6,7 C 91 % 1002,9 hPa 0,0 l/m 0,0 km/h (0 Bft) S-SW 202 0 min 0,000 mm 0 W/m 5,3 C 6,7 C 6,4 km/h (2 Bft) 100 %
12.11.2014 06:50 6,7 C 6,6 C 6,7 C 91 % 1002,9 hPa 0,0 l/m 0,0 km/h (0 Bft) S-SW 202 0 min 0,000 mm 0 W/m 5,3 C 6,7 C 4,8 km/h (1 Bft) 100 %
12.11.2014 07:00 6,7 C 6,6 C 6,7 C 91 % 1002,9 hPa 0,0 l/m 1,6 km/h (1 Bft) S-SW 202 0 min 0,000 mm 0 W/m 5,3 C 6,7 C 6,4 km/h (2 Bft) 100 %
12.11.2014 07:10 6,7 C 6,6 C 6,7 C 91 % 1003,2 hPa 0,0 l/m 1,6 km/h (1 Bft) SW 225 0 min 0,000 mm 0 W/m 5,3 C 6,7 C 8,0 km/h (2 Bft) 100 %
12.11.2014 07:20 6,7 C 6,7 C 6,7 C 91 % 1003,2 hPa 0,0 l/m 0,0 km/h (0 Bft) SW 225 0 min 0,000 mm 0 W/m 5,3 C 6,7 C 4,8 km/h (1 Bft) 100 %
12.11.2014 07:30 6,7 C 6,7 C 6,7 C 91 % 1003,2 hPa 0,0 l/m 0,0 km/h (0 Bft) S-SW 202 0 min 0,000 mm 0 W/m 5,3 C 6,7 C 4,8 km/h (1 Bft) 100 %
12.11.2014 07:40 6,7 C 6,7 C 6,7 C 91 % 1003,3 hPa 0,0 l/m 0,0 km/h (0 Bft) SW 225 0 min 0,000 mm 0 W/m 5,3 C 6,7 C 4,8 km/h (1 Bft) 100 %
12.11.2014 07:50 6,7 C 6,7 C 6,8 C 91 % 1003,4 hPa 0,0 l/m 1,6 km/h (1 Bft) S-SW 202 0 min 0,000 mm 0 W/m 5,3 C 6,7 C 6,4 km/h (2 Bft) 100 %
12.11.2014 08:00 6,7 C 6,7 C 6,8 C 91 % 1003,3 hPa 0,0 l/m 0,0 km/h (0 Bft) N 0 0 min 0,000 mm 5 W/m 5,3 C 6,7 C 0,0 km/h (0 Bft) 100 %
12.11.2014 08:10 6,7 C 6,7 C 6,7 C 91 % 1003,5 hPa 0,0 l/m 0,0 km/h (0 Bft) SW 225 0 min 0,000 mm 7 W/m 5,3 C 6,7 C 4,8 km/h (1 Bft) 100 %
12.11.2014 08:20 6,8 C 6,7 C 6,8 C 91 % 1003,7 hPa 0,0 l/m 0,0 km/h (0 Bft) SW 225 0 min 0,000 mm 9 W/m 5,4 C 6,8 C 3,2 km/h (1 Bft) 100 %
12.11.2014 08:30 6,8 C 6,7 C 6,8 C 91 % 1003,8 hPa 0,0 l/m 1,6 km/h (1 Bft) W-SW 247 0 min 0,000 mm 12 W/m 5,4 C 6,8 C 4,8 km/h (1 Bft) 100 %
12.11.2014 08:40 6,8 C 6,8 C 6,8 C 91 % 1003,9 hPa 0,0 l/m 1,6 km/h (1 Bft) W-SW 247 0 min 0,000 mm 19 W/m 5,4 C 6,8 C 8,0 km/h (2 Bft) 100 %
12.11.2014 08:50 6,8 C 6,8 C 6,8 C 91 % 1003,9 hPa 0,0 l/m 0,0 km/h (0 Bft) W-SW 247 0 min 0,000 mm 23 W/m 5,4 C 6,8 C 1,6 km/h (1 Bft) 90 %
12.11.2014 09:00 6,7 C 6,7 C 6,8 C 91 % 1004,0 hPa 0,0 l/m 1,6 km/h (1 Bft) S-SW 202 0 min 0,000 mm 23 W/m 5,3 C 6,7 C 9,7 km/h (2 Bft) 96 %
12.11.2014 09:10 6,8 C 6,7 C 6,8 C 91 % 1004,0 hPa 0,0 l/m 0,0 km/h (0 Bft) W 270 0 min 0,000 mm 23 W/m 5,4 C 6,8 C 4,8 km/h (1 Bft) 100 %
12.11.2014 09:20 6,8 C 6,8 C 6,8 C 91 % 1004,1 hPa 0,0 l/m 1,6 km/h (1 Bft) W 270 0 min 0,000 mm 32 W/m 5,4 C 6,8 C 6,4 km/h (2 Bft) 100 %
12.11.2014 09:30 6,8 C 6,8 C 6,8 C 91 % 1004,3 hPa 0,0 l/m 1,6 km/h (1 Bft) W-NW 292 0 min 0,000 mm 32 W/m 5,4 C 6,8 C 8,0 km/h (2 Bft) 100 %
12.11.2014 09:40 6,8 C 6,8 C 6,8 C 91 % 1004,4 hPa 0,0 l/m 1,6 km/h (1 Bft) W 270 0 min 0,000 mm 26 W/m 5,4 C 6,8 C 6,4 km/h (2 Bft) 100 %
12.11.2014 09:50 6,9 C 6,8 C 6,9 C 91 % 1004,3 hPa 0,0 l/m 1,6 km/h (1 Bft) W 270 0 min 0,000 mm 26 W/m 5,5 C 6,9 C 6,4 km/h (2 Bft) 100 %
12.11.2014 10:00 6,9 C 6,8 C 6,9 C 91 % 1004,3 hPa 0,0 l/m 1,6 km/h (1 Bft) W-NW 292 0 min 0,025 mm 25 W/m 5,5 C 6,9 C 6,4 km/h (2 Bft) 100 %
12.11.2014 10:10 6,9 C 6,9 C 6,9 C 91 % 1004,2 hPa 0,0 l/m 1,6 km/h (1 Bft) W 270 0 min 0,000 mm 35 W/m 5,5 C 6,9 C 6,4 km/h (2 Bft) 100 %
12.11.2014 10:20 6,9 C 6,9 C 6,9 C 91 % 1004,3 hPa 0,0 l/m 1,6 km/h (1 Bft) NW 315 0 min 0,000 mm 37 W/m 5,5 C 6,9 C 8,0 km/h (2 Bft) 100 %
12.11.2014 10:30 7,0 C 6,9 C 7,0 C 91 % 1004,5 hPa 0,0 l/m 3,2 km/h (1 Bft) W 270 0 min 0,000 mm 40 W/m 5,6 C 7,0 C 11,3 km/h (2 Bft) 100 %
12.11.2014 10:40 7,0 C 7,0 C 7,0 C 91 % 1004,5 hPa 0,0 l/m 1,6 km/h (1 Bft) W-SW 247 0 min 0,000 mm 35 W/m 5,6 C 7,0 C 8,0 km/h (2 Bft) 100 %
12.11.2014 10:50 7,1 C 7,0 C 7,1 C 91 % 1004,5 hPa 0,0 l/m 1,6 km/h (1 Bft) W-NW 292 0 min 0,000 mm 33 W/m 5,7 C 7,1 C 6,4 km/h (2 Bft) 100 %
12.11.2014 11:00 7,1 C 7,1 C 7,1 C 91 % 1004,4 hPa 0,0 l/m 3,2 km/h (1 Bft) W-NW 292 0 min 0,025 mm 35 W/m 5,7 C 7,1 C 9,7 km/h (2 Bft) 96 %
12.11.2014 11:10 7,1 C 7,1 C 7,2 C 91 % 1004,4 hPa 0,0 l/m 3,2 km/h (1 Bft) NW 315 0 min 0,000 mm 44 W/m 5,7 C 7,1 C 8,0 km/h (2 Bft) 100 %
12.11.2014 11:20 7,2 C 7,1 C 7,2 C 91 % 1004,4 hPa 0,0 l/m 1,2 km/h (1 Bft) NW 313 0 min 0,001 mm 40 W/m 5,8 C 7,2 C 6,4 km/h (2 Bft) 100 %
12.11.2014 11:30 7,2 C 7,2 C 7,2 C 91 % 1004,3 hPa 0,0 l/m 1,3 km/h (1 Bft) N-NW 330 0 min 0,000 mm 44 W/m 5,8 C 7,2 C 6,4 km/h (2 Bft) 100 %
12.11.2014 11:40 7,3 C 7,2 C 7,3 C 91 % 1004,4 hPa 0,0 l/m 1,2 km/h (1 Bft) NW 304 0 min 0,000 mm 49 W/m 5,9 C 7,3 C 4,8 km/h (1 Bft) 100 %
12.11.2014 11:50 7,3 C 7,3 C 7,3 C 91 % 1004,5 hPa 0,0 l/m 0,2 km/h (0 Bft) NW 304 0 min 0,000 mm 47 W/m 5,9 C 7,3 C 3,2 km/h (1 Bft) 100 %
12.11.2014 12:00 7,3 C 7,3 C 7,3 C 91 % 1004,6 hPa 0,0 l/m 0,0 km/h (0 Bft) NW 304 0 min 0,000 mm 62 W/m 5,9 C 7,3 C 1,6 km/h (1 Bft) 100 %
12.11.2014 12:10 7,4 C 7,3 C 7,4 C 91 % 1004,6 hPa 0,0 l/m 0,6 km/h (0 Bft) NW 304 0 min 0,025 mm 54 W/m 6,0 C 7,4 C 3,2 km/h (1 Bft) 100 %
12.11.2014 12:20 7,4 C 7,4 C 7,4 C 92 % 1004,6 hPa 0,0 l/m 0,0 km/h (0 Bft) NW 304 0 min 0,000 mm 51 W/m 6,2 C 7,4 C 0,0 km/h (0 Bft) 100 %
12.11.2014 12:30 7,5 C 7,4 C 7,5 C 92 % 1004,6 hPa 0,0 l/m 1,1 km/h (1 Bft) W-NW 291 0 min 0,000 mm 42 W/m 6,3 C 7,5 C 4,8 km/h (1 Bft) 100 %
12.11.2014 12:40 7,6 C 7,5 C 7,6 C 92 % 1004,8 hPa 0,0 l/m 1,2 km/h (1 Bft) SW 220 0 min 0,000 mm 53 W/m 6,4 C 7,6 C 4,8 km/h (1 Bft) 100 %
12.11.2014 12:50 7,6 C 7,6 C 7,6 C 92 % 1004,7 hPa 0,0 l/m 0,8 km/h (0 Bft) SW 217 0 min 0,000 mm 62 W/m 6,4 C 7,6 C 8,0 km/h (2 Bft) 100 %
12.11.2014 13:00 7,6 C 7,6 C 7,6 C 92 % 1004,7 hPa 0,0 l/m 1,5 km/h (1 Bft) W-SW 245 0 min 0,026 mm 69 W/m 6,4 C 7,6 C 8,0 km/h (2 Bft) 100 %
12.11.2014 13:10 7,6 C 7,6 C 7,7 C 92 % 1004,7 hPa 0,0 l/m 1,0 km/h (0 Bft) W-NW 290 0 min 0,000 mm 49 W/m 6,4 C 7,6 C 8,0 km/h (2 Bft) 100 %
12.11.2014 13:20 7,7 C 7,6 C 7,7 C 92 % 1004,7 hPa 0,0 l/m 2,2 km/h (1 Bft) W-SW 258 0 min 0,000 mm 35 W/m 6,5 C 7,7 C 8,0 km/h (2 Bft) 100 %
12.11.2014 13:30 7,6 C 7,6 C 7,7 C 92 % 1004,8 hPa 0,0 l/m 0,5 km/h (0 Bft) W 266 0 min 0,000 mm 37 W/m 6,4 C 7,6 C 6,4 km/h (2 Bft) 100 %
12.11.2014 13:40 7,7 C 7,6 C 7,7 C 92 % 1004,7 hPa 0,0 l/m 1,2 km/h (1 Bft) W-SW 254 0 min 0,000 mm 47 W/m 6,5 C 7,7 C 8,0 km/h (2 Bft) 100 %
12.11.2014 13:50 7,7 C 7,6 C 7,7 C 92 % 1004,7 hPa 0,0 l/m 2,3 km/h (1 Bft) W-SW 258 0 min 0,000 mm 53 W/m 6,5 C 7,7 C 6,4 km/h (2 Bft) 100 %
12.11.2014 14:00 7,7 C 7,7 C 7,7 C 92 % 1004,8 hPa 0,0 l/m 2,5 km/h (1 Bft) W 265 0 min 0,025 mm 54 W/m 6,5 C 7,7 C 9,7 km/h (2 Bft) 100 %
12.11.2014 14:10 7,8 C 7,7 C 7,8 C 92 % 1004,9 hPa 0,0 l/m 2,3 km/h (1 Bft) W 263 0 min 0,000 mm 47 W/m 6,6 C 7,8 C 8,0 km/h (2 Bft) 100 %
12.11.2014 14:20 7,8 C 7,7 C 7,8 C 92 % 1005,0 hPa 0,0 l/m 2,9 km/h (1 Bft) W-SW 252 0 min 0,000 mm 40 W/m 6,6 C 7,8 C 9,7 km/h (2 Bft) 100 %
12.11.2014 14:30 7,8 C 7,7 C 7,8 C 92 % 1005,0 hPa 0,0 l/m 2,1 km/h (1 Bft) SW 217 0 min 0,000 mm 44 W/m 6,6 C 7,8 C 9,7 km/h (2 Bft) 100 %
12.11.2014 14:40 7,8 C 7,8 C 7,8 C 92 % 1005,0 hPa 0,0 l/m 4,0 km/h (1 Bft) S-SW 213 0 min 0,000 mm 40 W/m 6,6 C 7,8 C 8,0 km/h (2 Bft) 100 %
12.11.2014 14:50 7,8 C 7,8 C 7,8 C 92 % 1005,1 hPa 0,0 l/m 1,8 km/h (1 Bft) S-SW 212 0 min 0,000 mm 26 W/m 6,6 C 7,8 C 8,0 km/h (2 Bft) 91 %
12.11.2014 15:00 7,9 C 7,8 C 7,9 C 92 % 1005,3 hPa 0,0 l/m 1,9 km/h (1 Bft) SW 234 0 min 0,025 mm 28 W/m 6,7 C 7,9 C 8,0 km/h (2 Bft) 100 %
12.11.2014 15:10 7,9 C 7,8 C 7,9 C 92 % 1005,5 hPa 0,0 l/m 1,5 km/h (1 Bft) SW 233 0 min 0,000 mm 25 W/m 6,7 C 7,9 C 6,4 km/h (2 Bft) 100 %
12.11.2014 15:20 7,9 C 7,9 C 7,9 C 92 % 1005,3 hPa 0,0 l/m 2,5 km/h (1 Bft) W 267 0 min 0,000 mm 33 W/m 6,7 C 7,9 C 9,7 km/h (2 Bft) 99 %
12.11.2014 15:30 7,9 C 7,9 C 7,9 C 92 % 1005,0 hPa 0,0 l/m 3,0 km/h (1 Bft) W-NW 284 0 min 0,000 mm 40 W/m 6,7 C 7,9 C 8,0 km/h (2 Bft) 100 %
12.11.2014 15:40 7,9 C 7,9 C 7,9 C 92 % 1005,4 hPa 0,0 l/m 2,1 km/h (1 Bft) W-SW 252 0 min 0,000 mm 32 W/m 6,7 C 7,9 C 8,0 km/h (2 Bft) 99 %
12.11.2014 15:50 8,0 C 7,9 C 8,0 C 92 % 1005,2 hPa 0,0 l/m 0,8 km/h (0 Bft) NW 305 0 min 0,000 mm 18 W/m 6,8 C 8,0 C 8,0 km/h (2 Bft) 100 %
12.11.2014 16:00 7,9 C 7,9 C 8,0 C 92 % 1005,3 hPa 0,0 l/m 2,5 km/h (1 Bft) W-NW 301 0 min 0,026 mm 9 W/m 6,7 C 7,9 C 11,3 km/h (2 Bft) 100 %
12.11.2014 16:10 7,9 C 7,9 C 8,0 C 92 % 1005,4 hPa 0,0 l/m 0,0 km/h (0 Bft) W-NW 301 0 min 0,000 mm 5 W/m 6,7 C 7,9 C 1,6 km/h (1 Bft) 91 %
12.11.2014 16:20 7,9 C 7,9 C 7,9 C 92 % 1005,4 hPa 0,0 l/m 1,1 km/h (1 Bft) W-NW 294 0 min 0,000 mm 5 W/m 6,7 C 7,9 C 8,0 km/h (2 Bft) 100 %
12.11.2014 16:30 7,9 C 7,9 C 7,9 C 92 % 1005,2 hPa 0,0 l/m 0,4 km/h (0 Bft) W-NW 294 0 min 0,000 mm 0 W/m 6,7 C 7,9 C 3,2 km/h (1 Bft) 100 %
12.11.2014 16:40 7,9 C 7,9 C 7,9 C 92 % 1005,2 hPa 0,0 l/m 2,2 km/h (1 Bft) W-NW 301 0 min 0,000 mm 0 W/m 6,7 C 7,9 C 6,4 km/h (2 Bft) 100 %
12.11.2014 16:50 7,9 C 7,9 C 7,9 C 92 % 1005,5 hPa 0,0 l/m 0,2 km/h (0 Bft) W-NW 303 0 min 0,000 mm 0 W/m 6,7 C 7,9 C 4,8 km/h (1 Bft) 100 %
12.11.2014 17:00 7,8 C 7,8 C 7,9 C 92 % 1005,5 hPa 0,0 l/m 0,3 km/h (0 Bft) W-NW 302 0 min 0,000 mm 0 W/m 6,6 C 7,8 C 6,4 km/h (2 Bft) 100 %
12.11.2014 17:10 7,8 C 7,8 C 7,8 C 92 % 1005,6 hPa 0,0 l/m 1,3 km/h (1 Bft) W-NW 288 0 min 0,000 mm 0 W/m 6,6 C 7,8 C 6,4 km/h (2 Bft) 100 %
12.11.2014 17:20 7,8 C 7,8 C 7,8 C 92 % 1005,7 hPa 0,0 l/m 0,0 km/h (0 Bft) W-NW 288 0 min 0,000 mm 0 W/m 6,6 C 7,8 C 1,6 km/h (1 Bft) 100 %
12.11.2014 17:30 7,8 C 7,8 C 7,8 C 92 % 1005,8 hPa 0,0 l/m 0,2 km/h (0 Bft) W-NW 288 0 min 0,000 mm 0 W/m 6,6 C 7,8 C 3,2 km/h (1 Bft) 91 %
12.11.2014 17:40 7,8 C 7,8 C 7,8 C 92 % 1006,0 hPa 0,0 l/m 0,0 km/h (0 Bft) W-NW 288 0 min 0,000 mm 0 W/m 6,6 C 7,8 C 1,6 km/h (1 Bft) 100 %
12.11.2014 17:50 7,8 C 7,8 C 7,8 C 91 % 1006,2 hPa 0,0 l/m 0,8 km/h (0 Bft) W-NW 288 0 min 0,000 mm 0 W/m 6,4 C 7,8 C 4,8 km/h (1 Bft) 100 %
12.11.2014 18:00 7,8 C 7,8 C 7,8 C 91 % 1006,3 hPa 0,0 l/m 0,1 km/h (0 Bft) W 277 0 min 0,000 mm 0 W/m 6,4 C 7,8 C 3,2 km/h (1 Bft) 100 %
12.11.2014 18:10 7,8 C 7,8 C 7,8 C 91 % 1006,3 hPa 0,0 l/m 0,2 km/h (0 Bft) W 277 0 min 0,000 mm 0 W/m 6,4 C 7,8 C 3,2 km/h (1 Bft) 100 %
12.11.2014 18:20 7,8 C 7,8 C 7,8 C 91 % 1006,4 hPa 0,0 l/m 0,1 km/h (0 Bft) W 277 0 min 0,000 mm 0 W/m 6,4 C 7,8 C 1,6 km/h (1 Bft) 100 %
12.11.2014 18:30 7,8 C 7,8 C 7,8 C 91 % 1006,5 hPa 0,0 l/m 0,4 km/h (0 Bft) W 277 0 min 0,000 mm 0 W/m 6,4 C 7,8 C 3,2 km/h (1 Bft) 100 %
12.11.2014 18:40 7,8 C 7,7 C 7,8 C 91 % 1006,7 hPa 0,0 l/m 0,7 km/h (0 Bft) W 277 0 min 0,000 mm 0 W/m 6,4 C 7,8 C 4,8 km/h (1 Bft) 100 %
12.11.2014 18:50 7,8 C 7,8 C 7,8 C 91 % 1006,8 hPa 0,0 l/m 3,1 km/h (1 Bft) S-SW 211 0 min 0,000 mm 0 W/m 6,4 C 7,8 C 8,0 km/h (2 Bft) 100 %
12.11.2014 19:00 7,8 C 7,8 C 7,8 C 91 % 1006,7 hPa 0,0 l/m 0,0 km/h (0 Bft) S-SW 211 0 min 0,000 mm 0 W/m 6,4 C 7,8 C 1,6 km/h (1 Bft) 100 %
12.11.2014 19:10 7,8 C 7,8 C 7,8 C 91 % 1006,8 hPa 0,0 l/m 0,5 km/h (0 Bft) SW 227 0 min 0,000 mm 0 W/m 6,4 C 7,8 C 6,4 km/h (2 Bft) 100 %
12.11.2014 19:20 7,8 C 7,8 C 7,8 C 91 % 1006,9 hPa 0,0 l/m 0,1 km/h (0 Bft) SW 227 0 min 0,000 mm 0 W/m 6,4 C 7,8 C 1,6 km/h (1 Bft) 100 %
12.11.2014 19:30 7,7 C 7,7 C 7,8 C 91 % 1006,9 hPa 0,0 l/m 0,0 km/h (0 Bft) SW 227 0 min 0,000 mm 0 W/m 6,3 C 7,7 C 1,6 km/h (1 Bft) 100 %
12.11.2014 19:40 7,7 C 7,7 C 7,7 C 91 % 1006,9 hPa 0,0 l/m 0,0 km/h (0 Bft) SW 227 0 min 0,000 mm 0 W/m 6,3 C 7,7 C 0,0 km/h (0 Bft) 100 %
12.11.2014 19:50 7,7 C 7,7 C 7,7 C 91 % 1007,0 hPa 0,0 l/m 0,2 km/h (0 Bft) SW 227 0 min 0,000 mm 0 W/m 6,3 C 7,7 C 3,2 km/h (1 Bft) 100 %
12.11.2014 20:00 7,7 C 7,7 C 7,7 C 91 % 1007,1 hPa 0,0 l/m 0,2 km/h (0 Bft) SW 227 0 min 0,000 mm 0 W/m 6,3 C 7,7 C 3,2 km/h (1 Bft) 100 %
12.11.2014 20:10 7,7 C 7,7 C 7,7 C 91 % 1007,1 hPa 0,0 l/m 0,0 km/h (0 Bft) SW 227 0 min 0,000 mm 0 W/m 6,3 C 7,7 C 1,6 km/h (1 Bft) 100 %
12.11.2014 20:20 7,7 C 7,7 C 7,7 C 91 % 1007,1 hPa 0,0 l/m 0,0 km/h (0 Bft) SW 227 0 min 0,000 mm 0 W/m 6,3 C 7,7 C 0,0 km/h (0 Bft) 100 %
12.11.2014 20:30 7,7 C 7,7 C 7,7 C 91 % 1007,1 hPa 0,0 l/m 0,0 km/h (0 Bft) SW 227 0 min 0,000 mm 0 W/m 6,3 C 7,7 C 0,0 km/h (0 Bft) 100 %
12.11.2014 20:40 7,7 C 7,7 C 7,7 C 91 % 1007,1 hPa 0,0 l/m 0,0 km/h (0 Bft) SW 227 0 min 0,000 mm 0 W/m 6,3 C 7,7 C 0,0 km/h (0 Bft) 100 %
12.11.2014 20:50 7,7 C 7,7 C 7,7 C 91 % 1007,2 hPa 0,0 l/m 0,0 km/h (0 Bft) SW 227 0 min 0,000 mm 0 W/m 6,3 C 7,7 C 0,0 km/h (0 Bft) 100 %
12.11.2014 21:00 7,7 C 7,7 C 7,7 C 91 % 1007,5 hPa 0,0 l/m 0,0 km/h (0 Bft) SW 227 0 min 0,000 mm 0 W/m 6,3 C 7,7 C 0,0 km/h (0 Bft) 100 %
12.11.2014 21:10 7,7 C 7,7 C 7,7 C 91 % 1007,6 hPa 0,0 l/m 0,0 km/h (0 Bft) SW 225 0 min 0,000 mm 0 W/m 6,3 C 7,7 C 1,6 km/h (1 Bft) 97 %
12.11.2014 21:20 7,7 C 7,7 C 7,7 C 91 % 1007,7 hPa 0,0 l/m 1,6 km/h (1 Bft) SW 225 0 min 0,000 mm 0 W/m 6,3 C 7,7 C 3,2 km/h (1 Bft) 96 %
12.11.2014 21:30 7,7 C 7,7 C 7,8 C 91 % 1007,8 hPa 0,0 l/m 0,0 km/h (0 Bft) SW 225 0 min 0,000 mm 0 W/m 6,3 C 7,7 C 3,2 km/h (1 Bft) 97 %
12.11.2014 21:40 7,8 C 7,7 C 7,8 C 91 % 1007,9 hPa 0,0 l/m 0,0 km/h (0 Bft) SW 225 0 min 0,000 mm 0 W/m 6,4 C 7,8 C 1,6 km/h (1 Bft) 98 %
12.11.2014 21:50 7,8 C 7,8 C 7,8 C 91 % 1008,1 hPa 0,0 l/m 0,0 km/h (0 Bft) SW 225 0 min 0,000 mm 0 W/m 6,4 C 7,8 C 1,6 km/h (1 Bft) 97 %
12.11.2014 22:00 7,8 C 7,8 C 7,8 C 91 % 1008,1 hPa 0,0 l/m 0,0 km/h (0 Bft) N 0 0 min 0,000 mm 0 W/m 6,4 C 7,8 C 0,0 km/h (0 Bft) 97 %
12.11.2014 22:10 7,8 C 7,8 C 7,8 C 91 % 1008,2 hPa 0,0 l/m 0,0 km/h (0 Bft) N 0 0 min 0,000 mm 0 W/m 6,4 C 7,8 C 0,0 km/h (0 Bft) 89 %
12.11.2014 22:20 7,8 C 7,8 C 7,8 C 91 % 1008,3 hPa 0,0 l/m 0,0 km/h (0 Bft) N 0 0 min 0,000 mm 0 W/m 6,4 C 7,8 C 0,0 km/h (0 Bft) 97 %
12.11.2014 22:30 7,8 C 7,8 C 7,9 C 91 % 1008,4 hPa 0,0 l/m 0,0 km/h (0 Bft) N 0 0 min 0,000 mm 0 W/m 6,4 C 7,8 C 0,0 km/h (0 Bft) 98 %
12.11.2014 22:40 7,9 C 7,8 C 7,9 C 91 % 1008,4 hPa 0,0 l/m 0,0 km/h (0 Bft) N 0 0 min 0,000 mm 0 W/m 6,5 C 7,9 C 0,0 km/h (0 Bft) 97 %
12.11.2014 22:50 7,9 C 7,9 C 7,9 C 91 % 1008,4 hPa 0,0 l/m 0,0 km/h (0 Bft) N 0 0 min 0,000 mm 0 W/m 6,5 C 7,9 C 0,0 km/h (0 Bft) 97 %
12.11.2014 23:00 7,9 C 7,9 C 7,9 C 91 % 1008,5 hPa 0,0 l/m 0,0 km/h (0 Bft) N 0 0 min 0,000 mm 0 W/m 6,5 C 7,9 C 0,0 km/h (0 Bft) 97 %
12.11.2014 23:10 7,9 C 7,9 C 7,9 C 91 % 1008,5 hPa 0,0 l/m 0,0 km/h (0 Bft) N 0 0 min 0,000 mm 0 W/m 6,5 C 7,9 C 0,0 km/h (0 Bft) 98 %
12.11.2014 23:20 7,9 C 7,9 C 7,9 C 91 % 1008,6 hPa 0,0 l/m 0,0 km/h (0 Bft) N 0 0 min 0,000 mm 0 W/m 6,5 C 7,9 C 0,0 km/h (0 Bft) 98 %
12.11.2014 23:30 7,8 C 7,8 C 7,9 C 91 % 1008,6 hPa 0,0 l/m 0,0 km/h (0 Bft) N 0 0 min 0,000 mm 0 W/m 6,4 C 7,8 C 0,0 km/h (0 Bft) 97 %
12.11.2014 23:40 7,8 C 7,8 C 7,9 C 91 % 1008,7 hPa 0,0 l/m 0,0 km/h (0 Bft) N 0 0 min 0,000 mm 0 W/m 6,4 C 7,8 C 0,0 km/h (0 Bft) 97 %
12.11.2014 23:50 7,9 C 7,8 C 7,9 C 91 % 1008,8 hPa 0,0 l/m 0,0 km/h (0 Bft) SW 225 0 min 0,000 mm 0 W/m 6,5 C 7,9 C 1,6 km/h (1 Bft) 98 %
_ Min-Zeit 06:50 06:50 06:30 00:00 06:00 - 00:00 - - - - - 06:20 06:20 01:20 22:10
Minimum _ 6,6 C 6,6 C 6,7 C 91 % 1002,7 hPa - 0,0 km/h (0 Bft) - - - - - 5,3 C 6,7 C 0,0 km/h (0 Bft) 89 %
_ Max-Zeit 15:50 15:20 15:50 12:20 23:50 00:00 14:40 - - 00:00 13:00 13:00 15:50 15:50 10:30 00:30
Maximum _ 8,0 C 7,9 C 8,0 C 92 % 1008,8 hPa 0,0 l/m 4,0 km/h
S-SW (1 Bft)
- - 0 min 0,026 mm 69 W/m 6,8 C 8,0 C 11,3 km/h
W-SW (2 Bft)
100 %
Durchschnitt _ 7,3 C 7,3 C 7,4 C 91 % 1004,9 hPa #0,0 l/m 0,7 km/h (0 Bft) W-NW - #0 min. #0,178 mm 35 W/m 6,0 C 7,3 C 4,0 km/h (1 Bft) 99 %
PRIVATE WETTERSTATION BILLIGHEIM-ALLFELD - www.neckar-odenwald-wetter.de - Holger Sonntag